Flag for Germany Weather past 2 weeks in Koblenz, Rhineland-Palatinate, Germany

Now
59 °F

Broken clouds.


Feels Like: 58 °F
Forecast: 48 / 75 °F
Wind: 7 mph from Northeast

Location: Buechel


UV Index: 3 (Moderate)

Visibility: N/A


Pressure: 30.09 "Hg

Humidity: 77%

Dew point: 52 °F

Location of KoblenzLocation

Historic Weather in Koblenz

°F

Koblenz temperature yesterday

Maximum temperature yesterday: 64 °F (at 1:20 PM)
Minimum temperature yesterday: 48 °F (at 6:20 AM)
Average temperature yesterday: 56 °F

Past Weeks' High & Low Weather Summary

 TemperatureHumidityPressure
High64 °F (Apr 23, 1:20 PM)100% (Apr 22, 1:20 AM)30.39 "Hg (Apr 22, 1:20 AM)
Low34 °F (Apr 16, 3:20 AM)27% (Apr 17, 6:20 PM)29.59 "Hg (Apr 21, 3:20 PM)
Average50 °F66%30.03 "Hg
* Reported Apr 9 10:20 AM — Apr 24 10:20 AM, Koblenz, Weather by CustomWeather, © 2014

Note: Actual official high and low records may vary slightly from our data, if they occured in-between our weather recording intervals... More about our weather records

Advertising

Historic Weather Conditions — Data for Previous 24 hours

 ConditionsComfort  
Time TempWeatherWind HumidityBarometerVisibility
10:20 AM
Apr 24
55 °FLight rain. Broken clouds.7 mph82%30.09 "HgN/A
9:20 AM50 °FLight rain. Broken clouds.5 mph94%30.09 "HgN/A
8:20 AM52 °FLight rain. Broken clouds.7 mph82%30.09 "HgN/A
7:20 AM54 °FSprinkles. Passing clouds.6 mph82%30.09 "HgN/A
6:20 AM52 °FSprinkles. Partly cloudy.3 mph82%30.09 "HgN/A
5:20 AM50 °FPassing clouds.6 mph88%30.09 "HgN/A
4:20 AM52 °FPassing clouds.5 mph77%30.09 "HgN/A
3:20 AM52 °FCool.6 mph72%30.09 "HgN/A
2:20 AM54 °FCool.5 mph67%30.12 "HgN/A
1:20 AM54 °FCool.5 mph67%30.12 "HgN/A
12:20 AM52 °FCool.3 mph72%30.12 "HgN/A
11:20 PM
Apr 23
54 °FCool.5 mph67%30.12 "HgN/A
10:20 PM55 °FPassing clouds.3 mph67%30.12 "HgN/A
9:20 PM57 °FScattered clouds.5 mph63%30.09 "HgN/A
8:20 PM57 °FScattered clouds.2 mph63%30.09 "HgN/A
7:20 PM59 °FBroken clouds.5 mph59%30.09 "HgN/A
6:20 PM61 °FPartly sunny.5 mph52%30.09 "HgN/A
5:20 PM63 °FScattered clouds.9 mph49%30.07 "HgN/A
4:20 PM64 °FScattered clouds.8 mph46%30.09 "HgN/A
3:20 PM63 °FBroken clouds.9 mph52%30.09 "HgN/A
2:20 PM63 °FScattered clouds.6 mph45%30.09 "HgN/A
1:20 PM64 °FScattered clouds.7 mph46%30.09 "HgN/A
12:20 PM61 °FScattered clouds.8 mph55%30.09 "HgN/A
Weather by CustomWeather, © 2014

See weather overview